Regional Weather Roundup
Issued by NWS Sterling, VA

Home | Current Version | Previous Version | Graphics & Text | Print | Product List | Glossary On
Versions: 1 2 3 4 5 6 7 8 9 10 11 12 13 14 15 16 17 18 19 20 21 22 23 24 25 26 27 28
000
ASUS41 KLWX 231510
RWRLWX

REGIONAL WEATHER ROUNDUP
NATIONAL WEATHER SERVICE BALTIMORE MD/WASHINGTON DC
1000 AM EST THU FEB 23 2017

Note: "FAIR" indicates few or no clouds below 12,000 feet
with no significant weather and/or obstructions to visibility.
 TC=TEMPERATURE CELSIUS

 * =Non NWS site. Station does not report precipitation (e.g. rain,
    snow, etc.), thunder, or fog.

DCZ001-MDZ009-015-VAZ040>042-051-053>054-231600-
WASHINGTON METRO

CITY           SKY/WX    TMP DP  RH WIND       PRES   REMARKS
WASHINGTON NAT MOSUNNY   61  54  77 S13       29.91S
DULLES         SUNNY     63  53  70 S6        29.90S
ANDREWS AFB    SUNNY     65  54  67 SW13      29.90S
FT BELVOIR     SUNNY     62  53  73 VRB6G16   29.91S
QUANTICO       PTSUNNY   54  52  93 S7        29.93R
COLLEGE PARK*  SUNNY     63  52  67 SW7       29.90S
LEESBURG*      SUNNY     61  59  94 MISG      29.91S
MANASSAS*      SUNNY     62  54  74 SW7       29.92R
GAITHERSBURG*  SUNNY     63  52  67 W7        29.94S

$$

MDZ006>007-011-014-231600-
BALTIMORE METRO

CITY           SKY/WX    TMP DP  RH WIND       PRES   REMARKS
BWI AIRPORT    MOSUNNY   64  55  72 W5        29.89F
MD SCIENCE CTR   N/A     59  50  72 MISG      29.90F
MARTIN STATE   MOSUNNY   54  54 100 CALM      29.92F
ANNAPOLIS      SUNNY     50  48  93 SE10      29.90F
FORT MEADE*    SUNNY     64  54  68 S7        29.92S

$$

MDZ012-015-019>023-231600-
MARYLAND EASTERN SHORE

CITY           SKY/WX    TMP DP  RH WIND       PRES   REMARKS
OCEAN CITY     CLOUDY    59  51  75 S6        29.95S
SALISBURY      MOSUNNY   65  55  70 SW8       29.94S
BAY BRIDGE AP* SUNNY     61  54  77 S10       29.91F
CAMBRIDGE*     PTSUNNY   63  54  72 S9        29.93S
EASTON*        MOSUNNY   63  54  72 SW10      29.96S

$$

MDZ017>025-231600-
SOUTHERN MARYLAND

CITY           SKY/WX    TMP DP  RH WIND       PRES   REMARKS
PATUXENT RIVER PTSUNNY   60  55  83 SW7       29.93S
ST INIGOES     PTSUNNY   61  54  77 SW8       29.93S
LEONARDTOWN*   CLOUDY    59  52  77 SW7       29.94F

$$

MDZ003>005-231600-
NORTH CENTRAL MARYLAND

CITY           SKY/WX    TMP DP  RH WIND       PRES   REMARKS
FREDERICK*     PTSUNNY   55  55 100 SW5       29.93F
HAGERSTOWN APT MOSUNNY   62  52  69 S12       29.87F
WESTMINSTER*   CLOUDY    57  55  94 SW5       29.90S

$$

MDZ501>502-231600-
WESTERN MARYLAND

CITY           SKY/WX    TMP DP  RH WIND       PRES   REMARKS
OAKLAND*       CLOUDY    52  52 100 SW7       29.91S
CUMBERLAND*    SUNNY     64  52  63 S3        29.91S

$$

VAZ025>031-231600-
SHENANDOAH VALLEY

CITY           SKY/WX    TMP DP  RH WIND       PRES   REMARKS
WINCHESTER*    PTSUNNY   63  52  67 S6        29.89S
FRONT ROYAL*   SUNNY     64  52  63 SW9       29.88F
LURAY*         SUNNY     61  54  77 SW8       29.91S
NEW MARKET*    SUNNY     64  52  65 S6        29.91R
STAUNTON*      CLOUDY    58  52  79 W7        29.95R
WAYNESBORO*    CLOUDY    59  52  78 SW3       29.93F

$$

WVZ021-048>050-054>055-231600-
EASTERN WEST VIRGINIA PANHANDLE

CITY           SKY/WX    TMP DP  RH WIND       PRES   REMARKS
MARTINSBURG    MOSUNNY   65  52  62 S7        29.87F
PETERSBURG*    MOSUNNY   65  53  65 S8        29.89F

$$

VAZ036>039-050-231600-
CENTRAL FOOTHILLS

CITY           SKY/WX    TMP DP  RH WIND       PRES   REMARKS
CHARLOTTESVILL CLOUDY    60  54  80 S8        29.91F
CULPEPER*      CLOUDY    61  55  81 S5        29.92S
ORANGE*        CLOUDY    61  54  77 CALM      29.93S
GORDONSVILLE*  CLOUDY    58  55  87 SW7       29.92S
WARRENTON*     CLOUDY    61  51  70 W5        29.91S

$$

VAZ055>057-231600-
NORTH AND CENTRAL PIEDMONT

CITY           SKY/WX    TMP DP  RH WIND       PRES   REMARKS
FREDERICKSBRG* MOSUNNY   62  56  80 S8        29.91F
STAFFORD*      CLOUDY    60  56  84 SW6       29.96R

$$

NCZ024-NYZ072-PAZ021-071-VAZ022-071-231600-
OTHER REGIONAL OBSERVATIONS

CITY           SKY/WX    TMP DP  RH WIND       PRES   REMARKS
NEW YORK CITY  CLOUDY    52  47  83 W5        29.92F
PHILADELPHIA   CLOUDY    53  52  96 SW7       29.92S FOG
PITTSBURGH     PTSUNNY   60  55  83 SW14G20   29.82F
ROANOKE        MOSUNNY   56  51  84 CALM      29.97F
RICHMOND       MOSUNNY   63  56  78 S10       29.95S
RALEIGH        MOSUNNY   66  54  65 S3        29.97S

$$

ANZ530>537-231600-
MARINE OBSERVATIONS

STATION/POSITION TIME  TEMP    WIND        PRES
                       AIR SEA DIR/SP/G
                 (UTC) (F)     (DEG/KT/KT) (MB)
THOMAS PT LIGHT  1500   48 43  180/ 11/ 11   N/A
BALT KEY BRIDGE  1448   50      90/  6/  6 1012.6F
COVE POINT       1448   50     190/  9/ 10 1013.8F
LEWISETTA        1448   61 44  240/ 11/ 14 1013.4F
SOLOMONS ISLAND  1448   56 44  210/  7/  9   N/A
PINEY POINT      1448          220/  4/  5   N/A

$$





USA.gov is the U.S. government's official web portal to all federal, state and local government web resources and services.